Hourly Data Report for July 14, 2021

BONAVISTA
NEWFOUNDLAND
Current Station Operator: ECCC - MSC

48°40'02.000" N
53°06'51.000" W
25.60 m
8400601
71178
AVA

Download Data

Hourly Data (July 2021)
Hourly Data Report for July 14, 2021
TIME
LST
Temp Definition
°C
Dew Point Definition
°C
Rel Hum Definition
%
Precip. Amount Definition
mm

Wind Dir Definition
10's deg

Wind Spd Definition
km/h
Visibility Definition
km
Stn Press Definition
kPa
Hmdx Definition


Wind Chill Definition


Weather Definition


00:30 10.4 7.6 83 0.0 22 13   102.21     LegendNANA
01:30 10.7 8.1 84 0.0 22 15   102.20     LegendNANA
02:30 11.6 8.3 80 0.0 22 19   102.16     LegendNANA
03:30 12.0 8.3 78 0.0 22 21   102.17     LegendNANA
04:30 12.2 8.3 77 0.0 22 21   102.17     LegendNANA
05:30 12.7 8.7 77 0.0 22 19   102.16     LegendNANA
06:30 13.4 8.9 74 0.0 23 23   102.17     LegendNANA
07:30 14.5 9.5 72 0.0 23 24   102.18     LegendNANA
08:30 16.8 10.1 65 0.0 24 21   102.16     LegendNANA
09:30 17.3 10.2 63 0.0 25 17   102.15     LegendNANA
10:30 19.8 9.7 52 0.0 23 20   102.09     LegendNANA
11:30 22.3 10.1 46 0.0 24 13   102.05     LegendNANA
12:30 23.6 8.7 39 0.0 25 15   101.99     LegendNANA
13:30 24.1 9.9 41 0.0 24 10   101.94 25   LegendNANA
14:30 24.5 10.9 43 0.0 23 15   101.90 26   LegendNANA
15:30 25.7 11.0 40 0.0 20 15   101.87 27   LegendNANA
16:30 25.4 11.2 41 0.0 20 18   101.84 27   LegendNANA
17:30 24.3 11.1 44 0.0 19 19   101.81 26   LegendNANA
18:30 22.8 11.0 47 0.0 21 22   101.80 25   LegendNANA
19:30 21.2 10.3 50 0.0 21 27   101.80     LegendNANA
20:30 19.3 10.0 55 0.0 22 34   101.86     LegendNANA
21:30 18.0 9.5 58 0.0 22 32   101.87     LegendNANA
22:30 17.1 9.4 61 0.0 23 35   101.86     LegendNANA
23:30 16.3 10.1 67 0.0 22 30   101.87     LegendNANA

Notes on Data Quality.

Legend

  • E = Estimated
  • M = Missing
  • NA = Not Available*
  • [empty] = Indicates an unobserved value
Date modified: